Location: Newark
(7.1028°S, 35.3258°W)
Time: 14:18:39
(UTC+00:00)

Vanguard 3 - Pass Details

Date: 23 February 2020
Orbit: 508 x 3263 km, 33.4° (Epoch: 04 April)

Event Time Altitude Azimuth Distance (km) Brightness Sun altitude
Rises 21:46:29 0° 286° (WNW) 6,849 13.0 -16.3°
Reaches altitude 10° 21:51:05 10° 281° (W) 6,022 12.6 -17.4°
Maximum altitude 22:09:57 50° 211° (SSW) 3,739 10.7 -22.0°
Drops below altitude 10° 22:26:06 10° 139° (SE) 5,185 11.0 -25.8°
Sets 22:29:46 0° 133° (SE) 5,876 11.2 -26.7°
